OE5RPP Weather Reports


time (UTC)temp
F
wind
direction
speed
knots
gust
knots
rain 1hr
in
rain 24hr
in
rain mn
in
humidity
%
barometer
mb
20260906023742 55 270 0.0 0.0 0.00 0.16 0.00 55 1028.9
20260906022742 55 270 0.0 0.0 0.00 0.16 0.00 53 1028.9
20260906021741 56 270 0.0 0.0 0.00 0.16 0.00 53 1028.9
20260906020742 56 270 0.0 0.0 0.00 0.16 0.00 50 1028.9
20260906015742 56 270 0.0 0.0 0.00 0.16 0.00 49 1028.9
20260906014741 56 270 0.0 0.0 0.00 0.16 0.00 49 1028.9
20260906013740 57 270 0.0 0.0 0.00 0.16 0.00 48 1028.9
20260906012740 57 270 0.0 0.0 0.00 0.16 0.00 47 1028.9
20260906011741 57 270 0.0 0.0 0.00 0.16 0.00 46 1028.9
20260906010742 57 270 0.0 0.0 0.00 0.16 0.00 45 1028.9
20260906005742 57 270 0.0 0.0 0.00 0.16 0.00 42 1028.9
20260906004718 58 270 0.0 0.0 0.00 0.16 0.00 40 1028.9
20260906003719 58 270 0.0 0.0 0.00 0.16 0.00 37 1028.9
20260906002719 60 270 0.0 0.0 0.00 0.16 0.00 35 1028.9
20260906001718 61 270 0.0 0.0 0.00 0.16 0.00 35 1028.9
20260906000719 61 315 0.0 0.0 0.00 0.16 0.00 35 1028.9
20260905235719 62 247 0.0 0.0 0.00 0.16 0.00 36 1028.9
20260905234718 63 247 0.9 0.0 0.00 0.16 0.00 36 1028.9
20260905233719 63 270 0.0 0.0 0.00 0.16 0.00 43 1028.9
20260905232719 63 180 0.0 0.0 0.00 0.16 0.00 43 1028.9
20260905231718 63 247 1.7 3.5 0.00 0.16 0.00 45 1028.9
20260905230719 63 247 0.9 0.0 0.00 0.16 0.00 47 1028.9
20260905225719 63 270 1.7 2.6 0.00 0.16 0.00 48 1028.9
20260905224718 63 247 0.0 0.0 0.00 0.16 0.00 49 1027.9
20260905223718 63 270 2.6 0.0 0.00 0.16 0.00 50 1027.9
20260905222718 62 225 2.6 4.3 0.00 0.16 0.00 49 1027.9
20260905221719 63 270 0.0 0.0 0.00 0.16 0.00 53 1027.9
20260905220718 63 270 1.7 3.5 0.00 0.16 0.00 55 1027.9
20260905215718 63 202 2.6 0.0 0.00 0.16 0.16 56 1027.9
20260905214719 63 202 1.7 0.0 0.00 0.16 0.16 58 1027.9
20260905213718 63 315 0.0 0.0 0.00 0.16 0.16 59 1027.9
20260905212718 63 270 0.9 0.0 0.00 0.16 0.16 59 1027.9
20260905211717 62 315 0.0 0.0 0.00 0.16 0.16 57 1027.9
20260905210718 62 292 0.0 0.0 0.00 0.16 0.16 58 1027.9
20260905205718 62 292 0.0 0.0 0.04 0.16 0.16 55 1027.9
20260905204718 62 292 0.0 3.5 0.00 0.12 0.12 51 1027.9
20260905203717 62 337 0.0 0.9 0.00 0.12 0.12 43 1026.9
20260905202717 63 202 0.0 0.0 0.00 0.12 0.12 42 1026.9
20260905201719 63 157 2.6 4.3 0.00 0.12 0.12 42 1026.9
20260905200718 63 180 0.0 0.0 0.00 0.12 0.12 40 1026.9
20260905195717 63 135 0.0 0.0 0.00 0.12 0.12 37 1026.9
20260905194718 63 180 0.0 0.0 0.00 0.12 0.12 36 1026.9
20260905193719 63 157 0.0 0.0 0.00 0.12 0.12 35 1026.9
20260905192719 64 157 0.9 0.0 0.00 0.12 0.12 35 1026.9
20260905191718 64 135 0.9 0.0 0.00 0.12 0.12 34 1026.9
20260905190718 65 202 1.7 0.0 0.00 0.12 0.12 34 1026.9
20260905185718 65 247 0.9 1.7 0.00 0.12 0.12 34 1026.9
20260905184719 65 112 0.0 0.0 0.00 0.12 0.12 32 1026.9
20260905183719 65 180 0.9 0.0 0.00 0.12 0.12 32 1026.9
20260905182719 65 202 0.9 2.6 0.00 0.12 0.12 31 1026.9
20260905181718 66 247 0.0 0.0 0.00 0.12 0.12 31 1026.9
20260905180719 65 225 0.9 0.0 0.00 0.12 0.12 27 1025.9
20260905175718 65 247 0.9 5.2 0.00 0.12 0.12 27 1025.9
20260905174719 65 180 0.0 0.0 0.00 0.12 0.12 21 1025.9
20260905173718 66 180 0.0 0.0 0.00 0.12 0.12 21 1025.9
20260905172718 67 247 0.0 0.0 0.00 0.12 0.12 21 1025.9
20260905171717 67 202 0.0 0.0 0.00 0.12 0.12 21 1025.9
20260905170718 69 202 0.0 0.0 0.00 0.12 0.12 20 1025.9
20260905165718 71 180 0.0 0.0 0.00 0.12 0.12 20 1025.9
20260905164718 71 202 0.9 0.0 0.00 0.12 0.12 20 1025.9
20260905163719 71 270 0.0 0.0 0.00 0.12 0.12 20 1025.9
20260905162718 71 202 0.0 0.0 0.00 0.12 0.12 18 1025.9
20260905161719 71 270 0.0 0.0 0.00 0.12 0.12 18 1025.9
20260905160718 71 270 4.3 3.5 0.00 0.12 0.12 20 1025.9
20260905155718 71 270 2.6 2.6 0.00 0.12 0.12 20 1025.9
20260905154717 71 225 1.7 2.6 0.00 0.12 0.12 20 1025.9
20260905153719 71 247 0.9 2.6 0.00 0.12 0.12 20 1025.9
20260905152719 70 270 0.9 0.0 0.00 0.12 0.12 20 1025.9
20260905151718 70 270 1.7 0.0 0.00 0.12 0.12 22 1025.9
20260905150719 69 270 4.3 6.1 0.00 0.12 0.12 23 1025.9
20260905145719 69 270 7.8 6.1 0.00 0.12 0.12 23 1025.9
20260905144718 69 292 5.2 4.3 0.00 0.12 0.12 23 1025.9
20260905143717 69 270 7.0 5.2 0.00 0.12 0.12 23 1025.9
20260905142719 69 180 5.2 4.3 0.00 0.12 0.12 30 1025.9
20260905141718 68 247 5.2 7.0 0.00 0.12 0.12 30 1025.9
20260905140718 68 247 5.2 4.3 0.00 0.12 0.12 30 1025.9
20260905135718 68 202 5.2 2.6 0.00 0.12 0.12 26 1025.9
20260905134719 68 247 6.1 6.1 0.00 0.12 0.12 26 1025.9
20260905133718 68 247 0.9 0.0 0.00 0.12 0.12 26 1025.9
20260905132718 69 247 5.2 5.2 0.00 0.12 0.12 23 1025.9
20260905131719 70 315 5.2 2.6 0.00 0.12 0.12 22 1025.9
20260905130719 70 225 3.5 3.5 0.00 0.12 0.12 22 1025.9
20260905125719 69 157 3.5 5.2 0.00 0.12 0.12 23 1025.9
20260905124717 69 0 0.9 3.5 0.00 0.12 0.12 23 1025.9
20260905123719 70 180 2.6 0.0 0.00 0.12 0.12 30 1025.9
20260905122719 68 157 1.7 0.0 0.00 0.12 0.12 31 1025.9
20260905121718 68 270 0.9 0.0 0.00 0.12 0.12 30 1025.9
20260905120718 69 202 2.6 3.5 0.00 0.12 0.12 26 1025.9
20260905115718 69 180 0.0 0.0 0.00 0.12 0.12 26 1025.9
20260905114719 69 180 0.0 0.0 0.00 0.12 0.12 26 1025.9
20260905113719 69 315 0.0 0.0 0.00 0.12 0.12 30 1025.9
20260905112718 69 247 1.7 0.0 0.00 0.12 0.12 26 1025.9
20260905111719 70 270 0.0 0.0 0.00 0.12 0.12 31 1025.9
20260905110718 69 157 0.0 0.0 0.00 0.12 0.12 34 1025.9
20260905105718 68 247 0.0 0.0 0.00 0.12 0.12 31 1025.9
20260905104717 67 247 0.0 0.0 0.00 0.12 0.12 32 1025.9
20260905103718 67 270 0.0 0.0 0.00 0.12 0.12 31 1025.9
20260905102718 67 202 1.7 3.5 0.00 0.12 0.12 31 1025.9
20260905101718 67 180 0.9 3.5 0.00 0.12 0.12 31 1025.9
20260905100719 67 180 0.9 0.0 0.00 0.12 0.12 35 1025.9
20260905095719 67 180 0.0 0.0 0.00 0.12 0.12 35 1025.9
20260905094718 67 135 0.0 0.0 0.00 0.12 0.12 40 1025.9
20260905093719 67 180 2.6 0.0 0.00 0.12 0.12 42 1025.9
20260905092719 67 180 0.0 0.0 0.00 0.12 0.12 42 1025.9
20260905091718 67 180 2.6 2.6 0.00 0.12 0.12 45 1025.9
20260905090718 67 202 3.5 6.1 0.00 0.12 0.12 47 1025.9
20260905085718 66 157 1.7 0.0 0.00 0.12 0.12 50 1025.9
20260905084719 65 180 4.3 4.3 0.00 0.12 0.12 53 1025.9
20260905083718 63 157 3.5 6.1 0.00 0.12 0.12 53 1025.9
20260905082718 63 180 2.6 0.0 0.00 0.12 0.12 54 1025.9
20260905081718 62 180 1.7 2.6 0.00 0.12 0.12 54 1025.9
20260905080719 61 292 0.0 0.0 0.00 0.12 0.12 53 1025.9
20260905075718 61 225 0.0 0.0 0.04 0.12 0.12 54 1025.9
20260905074718 61 202 0.0 0.0 0.04 0.12 0.12 53 1025.9
20260905073718 60 180 0.0 3.5 0.00 0.08 0.08 51 1025.9
20260905072718 60 180 0.0 0.0 0.00 0.08 0.08 50 1025.9
20260905071719 60 202 0.0 0.0 0.00 0.08 0.08 49 1025.9
20260905070718 60 202 0.0 0.0 0.00 0.08 0.08 49 1025.9
20260905065718 59 202 0.0 0.0 0.04 0.08 0.08 47 1025.9
20260905064719 59 315 0.0 0.0 0.04 0.08 0.08 47 1025.9
20260905063718 59 270 0.0 0.0 0.00 0.04 0.04 45 1025.9
20260905062719 60 247 0.0 0.0 0.00 0.04 0.04 45 1025.9
20260905061718 61 0 3.5 3.5 0.00 0.04 0.04 36 1025.9
20260905060719 62 337 0.0 0.0 0.00 0.04 0.04 35 1024.9
20260905055719 62 0 1.7 0.0 0.00 0.04 0.04 34 1024.9
20260905054717 62 22 4.3 6.1 0.00 0.04 0.04 32 1024.9
20260905053718 63 337 6.1 7.0 0.00 0.04 0.04 32 1023.9
20260905052718 63 0 0.0 0.0 0.00 0.04 0.04 37 1023.9
20260905051717 63 0 0.0 2.6 0.00 0.04 0.04 37 1023.9
20260905050719 63 315 1.7 0.0 0.00 0.04 0.04 41 1022.9
20260905045719 63 22 3.5 2.6 0.04 0.04 0.04 48 1022.9
20260905044719 64 315 0.0 0.0 0.04 0.04 0.04 50 1022.9
20260905043717 64 337 0.0 0.0 0.04 0.04 0.04 47 1021.9
20260905042717 65 315 0.0 0.0 0.04 0.04 0.04 47 1021.9
20260905041719 66 315 1.7 0.0 0.04 0.04 0.04 43 1021.9
20260905040718 68 270 0.9 0.0 0.04 0.04 0.04 41 1021.9
20260905035718 68 292 4.3 0.0 0.00 0.00 0.00 36 1021.9
20260905034717 68 247 0.0 0.0 0.00 0.00 0.00 36 1020.9
20260905033718 69 270 1.7 0.0 0.00 0.00 0.00 34 1020.9
20260905032718 68 270 0.9 0.0 0.00 0.00 0.00 36 1020.9
20260905031718 68 270 0.0 0.0 0.00 0.00 0.00 41 1019.9
20260905030717 68 180 0.9 0.0 0.00 0.00 0.00 42 1020.9
20260905025717 67 180 2.6 0.0 0.00 0.00 0.00 45 1020.9
20260905024719 67 157 2.6 0.0 0.00 0.00 0.00 42 1020.9